Orbital Elements at Epoch 2459000.5 (2020-May-31.0) TDB
Reference: JPL 12 (heliocentric ecliptic J2000)
Element | Value | Uncertainty (1-sigma) | Units |
e | .1128649705691198 | 3.8157e-08 | |
a | 2.305062059453103 | 1.1277e-08 | au |
q | 2.044901297952934 | 8.6927e-08 | au |
i | 4.975405331821381 | 4.4051e-06 | deg |
node | 221.9641786342542 | 5.9467e-05 | deg |
peri | 63.60478950998093 | 6.631e-05 | deg |
M | 14.81133250853221 | 2.658e-05 | deg |
tp | 2458947.908689668098 (2020-Apr-08.40868967) | 9.4486e-05 | TDB |
period | 1278.269305518484 3.50 | 9.3809e-06 2.568e-08 | d yr |
n | .2816307944232291 | 2.0668e-09 | deg/d |
Q | 2.565222820953272 | 1.255e-08 | au |
|
| | Orbit Determination Parameters
Additional Information
|